Regional Weather Roundup
Issued by NWS Huntsville, AL

Home | Current Version | Previous Version | Text Only | Print | Product List | Glossary On
Versions: 1 2 3 4 5 6 7 8 9 10 11 12 13 14 15 16 17 18 19 20 21 22 23 24 25 26 27 28 29 30 31 32 33 34 35 36 37 38 39 40 41 42 43 44 45 46 47 48 49 50
000
ASUS44 KHUN 300710
RWRHUN

WEATHER ROUNDUP FOR THE TENNESSEE VALLEY
NATIONAL WEATHER SERVICE HUNTSVILLE AL
200 AM CDT SAT JUL 30 2016

ALZ001>004-300800-
NORTHWEST ALABAMA

CITY           SKY/WX    TMP DP  RH WIND       PRES   REMARKS
COURTLAND HCN    N/A     72 N/A N/A CALM        N/A
RUSSELLVILLE     N/A     70 N/A N/A MISG        N/A
SHOALS AIRPORT CLEAR     72  69  90 S3        29.97S
SHOALS TVA RES   N/A     70 N/A N/A MISG        N/A
$$

ALZ005>007-016-300800-
NORTH CENTRAL ALABAMA

CITY           SKY/WX    TMP DP  RH WIND       PRES   REMARKS
CULLMAN AG STN   N/A     70 N/A N/A CALM        N/A
DECATUR AP     CLEAR     70  68  93 CALM      29.97F
HUNTSVILLE AP  CLEAR     71  66  84 SW3       29.96F
HUN NWS/UAH      N/A     74  65  75 S2          N/A
MERIDIANVILLE  CLEAR     73  64  73 CALM      29.97S
REDSTONE ARSN  CLEAR     71  69  92 SW1       29.96S
VINEMONT AP    FAIR      69  68  96 CALM      30.00F
$$

ALZ008>010-300800-
NORTHEAST ALABAMA

CITY           SKY/WX    TMP DP  RH WIND       PRES   REMARKS
ALBERTVILLE    CLEAR     72  72 100 CALM      29.98S
FORT PAYNE     CLEAR     72  68  88 CALM      29.97F
SCOTTSBORO AP  CLEAR     73  73 100 CALM      29.97S
SCOTTSBORO HCN   N/A     73 N/A N/A MISG        N/A
VALLEY HEAD      N/A     72 N/A N/A MISG        N/A
$$

TNZ076-096-097-300800-
SOUTHEASTERN MIDDLE TENNESSEE

CITY           SKY/WX    TMP DP  RH WIND       PRES   REMARKS
TULLAHOMA      CLEAR     70  66  88 CALM      29.98S
WINCHESTER     CLEAR     72  72 100 CALM      29.98R
$$

...SURROUNDING SITES...

CITY           SKY/WX    TMP DP  RH WIND       PRES   REMARKS
ATLANTA        CLOUDY    76  72  87 CALM      30.00F
ANNISTON       CLEAR     73  71  93 SE5       29.99F
BIRMINGHAM     CLEAR     80  72  76 SW6       30.00F
CHATTANOOGA    CLOUDY    76  68  76 CALM      29.95F
DALTON         CLEAR     72  72 100 CALM      29.97F
GADSDEN        CLEAR     73  72  96 CALM      29.98F
GOLDEN TRNGL   CLOUDY    77  70  78 CALM      29.97F
HALEYVILLE     FAIR      70  70 100 CALM      30.00F
JACKSON TN     PTCLDY    72  72 100 SW6       29.96S
MEMPHIS        CLOUDY    72  70  94 W3        29.97F FOG
NASHVILLE      PTCLDY    74  70  87 CALM      29.95S
OXFORD MS      FAIR      70  68  94 CALM      29.99S
ROME           CLEAR     72  70  93 SE3       29.96F
SAVANNAH       PTCLDY    70  70 100 CALM      29.95S
TUPELO         CLEAR     73  70  90 S6        29.96F
TUSCALOOSA     PTCLDY    76  75  97 SW3       29.98F
$$

...GULF COAST WEATHER...

CITY           SKY/WX    TMP DP  RH WIND       PRES   REMARKS
GULFPORT       CLEAR     79  76  90 CALM      30.00S
PASCAGOULA     CLEAR     75  75 100 CALM      30.01S
MOBILE         CLEAR     77  74  90 CALM      30.02F
GULF SHORES    MOSUNNY   78  78 100 CALM      30.01S
PENSACOLA      CLEAR     80  75  84 CALM      30.00F
DESTIN         PTCLDY    87  78  74 VRB3      30.00F HX 100
PANAMA CITY    PTCLDY    84  76  76 W7        30.01F HX  92
APPALACHICOLA  CLEAR     79  76  90 NW3       30.00F
$$




USA.gov is the U.S. government's official web portal to all federal, state and local government web resources and services.